When you browse on this site, cookies collect data to enhance your experience and personalize the content and advertising you see.
Visit our Privacy Policy to learn more. By continuing to use the site, you agree to this use of cookies and data.
  • In Slovakia
  • List of Countries
  • For 7 days
  • Water Temperature
  • Satellite Maps
  • Weather Map
  • Weather Widgets
  • user-avatar
    Login

    Hourly Weather Satif

    Today, 18 November, Sunday

    Time Temperature Precipitation Wind Pressure Humidity
    00:00 +10°C° 0 mm 1 mps 667 mmHg 86%
    01:00 +9°C° 0 mm 1 mps 667 mmHg 87%
    02:00 +9°C° 0 mm 1 mps 667 mmHg 89%
    03:00 +9°C° 0 mm 1 mps 666 mmHg 90%
    04:00 +9°C° 0 mm 1 mps 666 mmHg 91%
    05:00 +8°C° 0 mm 1 mps 666 mmHg 91%
    06:00 +8°C° 0 mm 1 mps 666 mmHg 92%
    07:00 +9°C° 0 mm 2 mps 667 mmHg 86%
    08:00 +10°C° 0 mm 2 mps 667 mmHg 80%
    09:00 +12°C° 0 mm 2 mps 667 mmHg 74%
    10:00 +12°C° 0 mm 3 mps 668 mmHg 67%
    11:00 +13°C° 0 mm 3 mps 668 mmHg 61%
    12:00 +14°C° 0 mm 4 mps 667 mmHg 56%
    13:00 +14°C° 0 mm 4 mps 667 mmHg 57%
    14:00 +14°C° 0 mm 5 mps 667 mmHg 59%
    15:00 +13°C° 0 mm 5 mps 666 mmHg 60%
    16:00 +13°C° 0 mm 4 mps 666 mmHg 64%
    17:00 +12°C° 0 mm 4 mps 666 mmHg 68%
    18:00 +11°C° 0 mm 4 mps 666 mmHg 72%
    19:00 +11°C° 0 mm 4 mps 665 mmHg 73%
    20:00 +11°C° 0 mm 4 mps 665 mmHg 73%
    21:00 +10°C° 0 mm 4 mps 665 mmHg 74%
    22:00 +10°C° 0 mm 4 mps 665 mmHg 75%
    23:00 +9°C° 0 mm 5 mps 665 mmHg 75%

    Tomorrow, 19 November, Monday

    Time Temperature Precipitation Wind Pressure Humidity
    00:00 +9°C° 0 mm 5 mps 664 mmHg 76%
    01:00 +8°C° 0 mm 5 mps 664 mmHg 76%
    02:00 +8°C° 0 mm 5 mps 663 mmHg 77%
    03:00 +8°C° 0 mm 5 mps 663 mmHg 78%
    04:00 +8°C° 0 mm 5 mps 662 mmHg 77%
    05:00 +8°C° 0 mm 5 mps 662 mmHg 77%
    06:00 +8°C° 0 mm 6 mps 662 mmHg 77%
    07:00 +9°C° 0.1 mm 7 mps 662 mmHg 72%
    08:00 +10°C° 0.1 mm 7 mps 662 mmHg 67%
    09:00 +11°C° 0.1 mm 8 mps 663 mmHg 62%
    10:00 +11°C° 0.1 mm 8 mps 662 mmHg 62%
    11:00 +11°C° 0.1 mm 8 mps 662 mmHg 62%
    12:00 +11°C° 0.1 mm 7 mps 662 mmHg 62%
    13:00 +11°C° 0 mm 7 mps 662 mmHg 58%
    14:00 +11°C° 0 mm 8 mps 662 mmHg 54%
    15:00 +11°C° 0 mm 8 mps 662 mmHg 51%
    16:00 +10°C° 0 mm 7 mps 662 mmHg 54%
    17:00 +9°C° 0 mm 6 mps 661 mmHg 57%
    18:00 +9°C° 0 mm 5 mps 661 mmHg 59%
    19:00 +8°C° 0 mm 4 mps 662 mmHg 63%
    20:00 +8°C° 0 mm 4 mps 662 mmHg 66%
    21:00 +7°C° 0 mm 4 mps 662 mmHg 69%
    22:00 +7°C° 0 mm 4 mps 662 mmHg 71%
    23:00 +7°C° 0 mm 4 mps 662 mmHg 73%

    Day after tomorrow, 20 November, Tuesday

    Time Temperature Precipitation Wind Pressure Humidity
    00:00 +6°C° 0 mm 4 mps 662 mmHg 76%
    01:00 +6°C° 0 mm 4 mps 662 mmHg 77%
    02:00 +6°C° 0 mm 4 mps 662 mmHg 78%
    03:00 +6°C° 0 mm 4 mps 662 mmHg 79%
    04:00 +5°C° 0.1 mm 4 mps 662 mmHg 80%
    05:00 +5°C° 0.1 mm 4 mps 662 mmHg 81%
    06:00 +5°C° 0.1 mm 4 mps 662 mmHg 82%
    07:00 +6°C° 0.5 mm 4 mps 663 mmHg 80%
    08:00 +6°C° 0.5 mm 4 mps 664 mmHg 78%
    09:00 +7°C° 0.5 mm 5 mps 665 mmHg 76%
    10:00 +8°C° 0 mm 5 mps 665 mmHg 72%
    11:00 +9°C° 0 mm 5 mps 665 mmHg 68%
    12:00 +10°C° 0 mm 5 mps 666 mmHg 64%
    13:00 +11°C° 0 mm 4 mps 666 mmHg 63%
    14:00 +11°C° 0 mm 4 mps 666 mmHg 62%
    15:00 +12°C° 0 mm 4 mps 666 mmHg 61%
    16:00 +11°C° 0 mm 3 mps 666 mmHg 63%
    17:00 +10°C° 0 mm 3 mps 666 mmHg 65%
    18:00 +9°C° 0 mm 3 mps 667 mmHg 68%
    19:00 +9°C° 0 mm 3 mps 667 mmHg 65%
    20:00 +9°C° 0 mm 3 mps 667 mmHg 63%
    21:00 +9°C° 0 mm 3 mps 668 mmHg 60%
    22:00 +8°C° 0 mm 3 mps 668 mmHg 61%
    23:00 +8°C° 0 mm 3 mps 668 mmHg 61%

    21 November, Wednesday

    Time Temperature Precipitation Wind Pressure Humidity
    00:00 +8°C° 0 mm 3 mps 668 mmHg 62%
    01:00 +8°C° 0 mm 3 mps 668 mmHg 64%
    02:00 +7°C° 0 mm 3 mps 668 mmHg 65%
    03:00 +7°C° 0 mm 3 mps 668 mmHg 67%
    04:00 +7°C° 0 mm 3 mps 669 mmHg 70%
    05:00 +5°C° 0 mm 3 mps 669 mmHg 73%
    06:00 +5°C° 0 mm 3 mps 669 mmHg 76%
    07:00 +8°C° 0 mm 3 mps 670 mmHg 71%
    08:00 +9°C° 0 mm 3 mps 671 mmHg 66%
    09:00 +11°C° 0 mm 4 mps 672 mmHg 62%
    10:00 +12°C° 0 mm 4 mps 672 mmHg 56%
    11:00 +13°C° 0 mm 5 mps 672 mmHg 50%
    12:00 +14°C° 0 mm 5 mps 673 mmHg 44%
    13:00 +14°C° 0 mm 4 mps 673 mmHg 44%
    14:00 +14°C° 0 mm 4 mps 673 mmHg 44%
    15:00 +14°C° 0 mm 3 mps 673 mmHg 43%
    16:00 +13°C° 0 mm 3 mps 673 mmHg 48%
    17:00 +12°C° 0 mm 2 mps 672 mmHg 54%
    18:00 +10°C° 0 mm 2 mps 672 mmHg 59%
    19:00 +10°C° 0 mm 2 mps 673 mmHg 59%
    20:00 +10°C° 0 mm 2 mps 673 mmHg 59%
    21:00 +9°C° 0 mm 3 mps 673 mmHg 60%
    22:00 +9°C° 0 mm 3 mps 673 mmHg 61%
    23:00 +9°C° 0 mm 3 mps 673 mmHg 62%

    22 November, Thursday

    Time Temperature Precipitation Wind Pressure Humidity
    00:00 +9°C° 0 mm 3 mps 673 mmHg 63%
    01:00 +9°C° 0 mm 3 mps 673 mmHg 62%
    02:00 +9°C° 0 mm 3 mps 672 mmHg 62%
    03:00 +9°C° 0 mm 3 mps 672 mmHg 62%
    04:00 +9°C° 0 mm 3 mps 672 mmHg 61%
    05:00 +9°C° 0 mm 3 mps 672 mmHg 60%
    06:00 +9°C° 0 mm 3 mps 673 mmHg 59%
    07:00 +10°C° 0 mm 4 mps 673 mmHg 53%
    08:00 +12°C° 0 mm 4 mps 674 mmHg 48%
    09:00 +13°C° 0 mm 4 mps 674 mmHg 43%
    10:00 +14°C° 0 mm 5 mps 674 mmHg 39%
    11:00 +15°C° 0 mm 6 mps 674 mmHg 35%
    12:00 +15°C° 0 mm 6 mps 674 mmHg 31%
    13:00 +15°C° 0 mm 6 mps 674 mmHg 32%
    14:00 +15°C° 0 mm 5 mps 674 mmHg 33%
    15:00 +15°C° 0 mm 4 mps 674 mmHg 34%
    16:00 +13°C° 0 mm 4 mps 674 mmHg 38%
    17:00 +12°C° 0 mm 3 mps 674 mmHg 42%
    18:00 +12°C° 0 mm 2 mps 674 mmHg 46%
    19:00 +10°C° 0 mm 2 mps 674 mmHg 47%
    20:00 +10°C° 0 mm 2 mps 674 mmHg 49%
    21:00 +10°C° 0 mm 2 mps 675 mmHg 50%
    22:00 +9°C° 0 mm 2 mps 674 mmHg 51%
    23:00 +9°C° 0 mm 2 mps 674 mmHg 51%

    23 November, Friday

    Time Temperature Precipitation Wind Pressure Humidity
    00:00 +9°C° 0 mm 2 mps 674 mmHg 52%
    01:00 +9°C° 0 mm 2 mps 674 mmHg 52%
    02:00 +8°C° 0 mm 2 mps 674 mmHg 52%
    03:00 +8°C° 0 mm 2 mps 674 mmHg 52%
    04:00 +8°C° 0 mm 2 mps 674 mmHg 53%
    05:00 +8°C° 0 mm 2 mps 674 mmHg 53%
    06:00 +8°C° 0 mm 2 mps 674 mmHg 53%
    07:00 +9°C° 0 mm 2 mps 675 mmHg 49%
    08:00 +11°C° 0 mm 3 mps 675 mmHg 45%
    09:00 +13°C° 0 mm 3 mps 676 mmHg 41%
    10:00 +14°C° 0 mm 3 mps 676 mmHg 39%
    11:00 +15°C° 0 mm 4 mps 676 mmHg 36%
    12:00 +17°C° 0 mm 4 mps 676 mmHg 33%
    13:00 +17°C° 0 mm 4 mps 675 mmHg 34%
    14:00 +17°C° 0 mm 4 mps 675 mmHg 35%
    15:00 +17°C° 0 mm 4 mps 675 mmHg 35%
    16:00 +14°C° 0 mm 4 mps 674 mmHg 39%
    17:00 +13°C° 0 mm 3 mps 674 mmHg 43%
    18:00 +12°C° 0 mm 3 mps 674 mmHg 47%
    19:00 +11°C° 0 mm 3 mps 674 mmHg 48%
    20:00 +11°C° 0 mm 3 mps 674 mmHg 49%
    21:00 +10°C° 0 mm 3 mps 674 mmHg 50%
    22:00 +10°C° 0 mm 3 mps 674 mmHg 51%
    23:00 +10°C° 0 mm 3 mps 673 mmHg 51%
    Show more